Regional Weather Roundup
Issued by NWS

Home | Current Version | Previous Version | Text Only | Print | Product List | Glossary On
Versions: 1 2 3 4 5 6 7 8 9 10 11 12 13 14 15 16 17 18 19 20 21 22 23 24 25 26 27 28 29 30 31 32 33 34 35 36 37 38 39 40 41 42 43 44 45 46 47 48 49 50
000
ASUS45 KPSR 310610
RWRAZ

ARIZONA REGIONAL HOURLY WEATHER ROUNDUP
NATIONAL WEATHER SERVICE PHOENIX AZ
1100 PM MST SAT AUG 30 2014

NOTE: FAIR INDICATES FEW OR NO CLOUDS BELOW 12,000 FEET WITH NO
SIGNIFICANT WEATHER AND/OR OBSTRUCTIONS TO VISIBILITY.

AZZ001>003-036-310700-
NORTHWEST ARIZONA

CITY           SKY/WX    TMP DP  RH WIND       PRES   REMARKS
BULLHEAD CITY  PTCLDY    93  39  15 SW6       29.66S
KINGMAN        PTCLDY    79  35  20 S9        29.90S
6HR MIN TEMP:  79; 6HR MAX TEMP:  96;

$$

AZZ004>008-015-016-018-310700-
NORTH CENTRAL ARIZONA

CITY           SKY/WX    TMP DP  RH WIND       PRES   REMARKS
GRAND CANYON     N/A    N/A N/A N/A MISG        N/A
WILLIAMS       PTCLDY    63  39  42 S8        30.25S
PRESCOTT       PTCLDY    66  42  41 S8        30.07S
6HR MIN TEMP:  66; 6HR MAX TEMP:  86;

FLAGSTAFF      PTCLDY    60  39  45 SW5       30.21F
6HR MIN TEMP:  60; 6HR MAX TEMP:  77;

PAYSON         CLEAR     70  39  32 CALM      30.10S
PAGE           PTCLDY    81  34  18 S9        29.91F
6HR MIN TEMP:  81; 6HR MAX TEMP:  93;

$$

AZZ009>014-017-310700-
NORTHEAST ARIZONA

CITY           SKY/WX    TMP DP  RH WIND       PRES   REMARKS
WINSLOW        PTCLDY    71  44  37 SW12      30.05S
6HR MIN TEMP:  70; 6HR MAX TEMP:  91;

SAINT JOHNS    CLEAR     71  39  31 SW8       30.11R
6HR MIN TEMP:  70; 6HR MAX TEMP:  87;

SHOW LOW       CLEAR     63  37  39 S9        30.20S
$$

AZZ023-310700-
GREATER PHOENIX AREA

CITY           SKY/WX    TMP DP  RH WIND       PRES   REMARKS
PHOENIX        CLEAR     94  50  22 CALM      29.72R
6HR MIN TEMP:  93; 6HR MAX TEMP: 108;

BUCKEYE          N/A     84  54  34 SW6       29.74S
LUKE AFB       NOT AVBL
6HR MIN TEMP:  90; 6HR MAX TEMP: 107;

DEER VALLEY    CLEAR     88  43  20 NE5       29.75R
6HR MIN TEMP:  86; 6HR MAX TEMP: 105;

SCOTTSDALE     CLEAR     91  46  21 CALM      29.76S
6HR MIN TEMP:  91; 6HR MAX TEMP: 105;

MESA-GATEWAY   CLEAR     84  48  28 SE3       29.77S
$$

AZZ027-028-310700-
SOUTHWEST MARICOPA COUNTY AND PINAL COUNTY

CITY           SKY/WX    TMP DP  RH WIND       PRES   REMARKS
CASA GRANDE    CLEAR     88  43  20 CALM      29.79R
6HR MIN TEMP:  88; 6HR MAX TEMP: 106;

$$

AZZ503-504-507>509-310700-
SOUTHEAST ARIZONA

CITY           SKY/WX    TMP DP  RH WIND       PRES   REMARKS
TUCSON         CLEAR     87  43  21 CALM      29.91R
6HR MIN TEMP:  87; 6HR MAX TEMP: 103;

DAVIS-MONTHAN  CLEAR     83  46  27 E5        29.90R
6HR MIN TEMP:  83; 6HR MAX TEMP: 101;

NOGALES        CLEAR     72  50  45 CALM      30.01S
6HR MIN TEMP:  71; 6HR MAX TEMP:  93;

SIERRA VISTA   CLEAR     81  43  26 SW12      30.07R
6HR MIN TEMP:  77; 6HR MAX TEMP:  93;

DOUGLAS        CLEAR     72  55  55 E7        30.02S
6HR MIN TEMP:  72; 6HR MAX TEMP:  93;

SAFFORD        CLEAR     80  45  28 N5        29.89S
6HR MIN TEMP:  78; 6HR MAX TEMP:  99;

$$

AZZ020-021-025-026-031-310700-
SOUTHWEST ARIZONA

CITY           SKY/WX    TMP DP  RH WIND       PRES   REMARKS
YUMA           CLEAR     91  43  18 S7        29.68R
6HR MIN TEMP:  91; 6HR MAX TEMP: 111;

$$

CAZ031-033-041-043-047-048-061-310700-
SOUTHERN CALIFORNIA

CITY           SKY/WX    TMP DP  RH WIND       PRES   REMARKS
DOWNTOWN L.A.  CLEAR     72  63  73 CALM      29.76F
6HR MIN TEMP:  72; 6HR MAX TEMP:  82;

L.A. AIRPORT   PTCLDY    71  65  81 NW6       29.77S
6HR MIN TEMP:  71; 6HR MAX TEMP:  76;

SAN DIEGO      PTCLDY    72  66  81 S3        29.80S
6HR MIN TEMP:  72; 6HR MAX TEMP:  78;

BURBANK        PTCLDY    76  60  57 E3        29.79R
6HR MIN TEMP:  76; 6HR MAX TEMP:  91;

ONTARIO        CLEAR     79  60  52 SW5       29.79F
6HR MIN TEMP:  78; 6HR MAX TEMP:  97;

RIVERSIDE      CLEAR     79  55  43 SW6       29.79S
6HR MIN TEMP:  79; 6HR MAX TEMP:  96;

PALM SPRINGS   CLEAR     96  46  18 VRB3      29.69R
6HR MIN TEMP:  96; 6HR MAX TEMP: 111;

IMPERIAL       CLEAR     96  47  18 S8        29.64R
6HR MIN TEMP:  94; 6HR MAX TEMP: 112; 6HR PCP: TRACE;

BLYTHE         CLEAR     97  46  17 S13       29.68R
6HR MIN TEMP:  97; 6HR MAX TEMP: 111;

NEEDLES        CLEAR     99  33  10 SW14      29.67S
6HR MIN TEMP:  99; 6HR MAX TEMP: 111;

$$

NVZ020-UTZ003-310700-
SOUTHERN NEVADA-UTAH

CITY           SKY/WX    TMP DP  RH WIND       PRES   REMARKS
LAS VEGAS      MOCLDY    92  29  10 S13       29.68F
6HR MIN TEMP:  92; 6HR MAX TEMP: 104;

SALT LAKE CITY CLOUDY    70  47  43 SE8       29.80F
6HR MIN TEMP:  69; 6HR MAX TEMP:  84;

$$

NMZ009-TXZ055-310700-
NEW MEXICO-WEST TEXAS

CITY           SKY/WX    TMP DP  RH WIND       PRES   REMARKS
ALBUQUERQUE    PTCLDY    77  40  26 S15       30.05R
6HR MIN TEMP:  74; 6HR MAX TEMP:  89;

EL PASO        CLEAR     78  49  35 SE5       29.99S
6HR MIN TEMP:  78; 6HR MAX TEMP:  94;

$$


........................KEY........................
SKY/WX - SKY CONDITION/WEATHER
TMP    - TEMPERATURE IN FAHRENHEIT
DP     - DEW POINT IN FAHRENHEIT
RH     - RELATIVE HUMIDITY IN PERCENT
WIND   - DIRECTION AND SPEED IN MILES PER HOUR (MPH)
VRB    - VARIABLE WIND DIRECTION
PRES   - MEAN SEA LEVEL PRESSURE IN INCHES OF MERCURY
         F - FALLING PRESSURE   R - RISING PRESSURE
         S - STEADY PRESSURE
VSB    - VISIBILITY IN MILES
HX     - HEAT INDEX IN FAHRENHEIT
WCI    - WIND CHILL INDEX IN FAHRENHEIT
TC     - TEMPERATURE IN CELSIUS WHICH IS ALSO KNOWN AS
         TEMPERATURE IN CENTIGRADE
AFB    - AIR FORCE BASE
         LUKE AFB IS LUKE AIR FORCE BASE
         DAVIS-MONTHAN IS DAVIS-MONTHAN AIR FORCE BASE
NAS    - NAVAL AIR STATION
         EL CENTRO NAS IS EL CENTRO NAVAL AIR STATION
N/A    - NOT AVAILABLE



USA.gov is the U.S. government's official web portal to all federal, state and local government web resources and services.